Time,TemperatureF,DewpointF,PressureIn,WindDirection,WindDirectionDegrees,WindSpeedMPH,WindSpeedGustMPH,Humidity,HourlyPrecipIn,Conditions,Clouds,dailyrainin,SoftwareType,DateUTC
2013-10-26 00:07:00,59.1,49.0,30.26,East,89,4.0,9.0,69,0.00,,,0.00,weatherlink.com 1.10,2013-10-26 05:07:00,
2013-10-26 00:22:00,58.8,49.0,30.26,ESE,110,7.0,9.0,70,0.00,,,0.00,weatherlink.com 1.10,2013-10-26 05:22:00,
2013-10-26 00:37:00,58.6,49.0,30.26,SE,128,5.0,7.0,71,0.00,,,0.00,weatherlink.com 1.10,2013-10-26 05:37:00,
2013-10-26 00:52:00,58.2,50.0,30.25,ESE,111,4.0,7.0,73,0.00,,,0.00,weatherlink.com 1.10,2013-10-26 05:52:00,
2013-10-26 01:07:00,58.2,50.0,30.25,SSE,160,3.0,8.0,73,0.00,,,0.00,weatherlink.com 1.10,2013-10-26 06:07:00,
2013-10-26 01:22:00,58.2,50.0,30.24,South,186,4.0,7.0,73,0.00,,,0.00,weatherlink.com 1.10,2013-10-26 06:22:00,
2013-10-26 01:37:00,58.1,49.0,30.24,SSW,203,7.0,11.0,73,0.00,,,0.00,weatherlink.com 1.10,2013-10-26 06:37:00,
2013-10-26 01:52:00,58.3,50.0,30.24,SE,143,4.0,11.0,73,0.00,,,0.00,weatherlink.com 1.10,2013-10-26 06:52:00,
2013-10-26 02:08:00,58.2,50.0,30.24,SE,134,5.0,10.0,73,0.00,,,0.00,weatherlink.com 1.10,2013-10-26 07:08:00,
2013-10-26 02:22:00,58.4,50.0,30.23,SSE,163,4.0,10.0,74,0.00,,,0.00,weatherlink.com 1.10,2013-10-26 07:22:00,
2013-10-26 02:37:00,58.6,50.0,30.22,South,183,5.0,12.0,73,0.00,,,0.00,weatherlink.com 1.10,2013-10-26 07:37:00,
2013-10-26 02:52:00,58.4,50.0,30.22,South,191,6.0,10.0,73,0.00,,,0.00,weatherlink.com 1.10,2013-10-26 07:52:00,
2013-10-26 03:07:00,58.2,50.0,30.21,SSW,198,5.0,10.0,74,0.00,,,0.00,weatherlink.com 1.10,2013-10-26 08:07:00,
2013-10-26 03:22:00,58.3,50.0,30.21,SSW,198,4.0,8.0,74,0.00,,,0.00,weatherlink.com 1.10,2013-10-26 08:22:00,
2013-10-26 03:37:00,58.2,50.0,30.21,SSW,193,9.0,12.0,74,0.00,,,0.00,weatherlink.com 1.10,2013-10-26 08:37:00,
2013-10-26 03:52:00,58.1,50.0,30.21,SSW,203,4.0,10.0,74,0.00,,,0.00,weatherlink.com 1.10,2013-10-26 08:52:00,
2013-10-26 04:07:00,58.1,50.0,30.20,South,179,4.0,14.0,75,0.00,,,0.00,weatherlink.com 1.10,2013-10-26 09:07:00,
2013-10-26 04:22:00,58.0,50.0,30.20,SSE,153,7.0,10.0,76,0.00,,,0.00,weatherlink.com 1.10,2013-10-26 09:22:00,
2013-10-26 04:37:00,58.0,50.0,30.20,ESE,106,9.0,10.0,76,0.00,,,0.00,weatherlink.com 1.10,2013-10-26 09:37:00,
2013-10-26 04:52:00,57.9,50.0,30.21,SSE,150,3.0,11.0,76,0.00,,,0.00,weatherlink.com 1.10,2013-10-26 09:52:00,
2013-10-26 05:07:00,57.8,51.0,30.21,SE,143,5.0,10.0,77,0.00,,,0.00,weatherlink.com 1.10,2013-10-26 10:07:00,
2013-10-26 05:22:00,58.0,51.0,30.22,SSE,163,3.0,9.0,77,0.00,,,0.00,weatherlink.com 1.10,2013-10-26 10:22:00,
2013-10-26 05:37:00,57.9,51.0,30.23,SSW,193,3.0,7.0,77,0.00,,,0.00,weatherlink.com 1.10,2013-10-26 10:37:00,
2013-10-26 05:52:00,58.1,51.0,30.23,SE,141,2.0,7.0,77,0.00,,,0.00,weatherlink.com 1.10,2013-10-26 10:52:00,
2013-10-26 06:07:00,58.2,51.0,30.23,SE,132,2.0,4.0,77,0.00,,,0.00,weatherlink.com 1.10,2013-10-26 11:07:00,
2013-10-26 06:22:00,58.1,51.0,30.23,SE,143,3.0,6.0,78,0.00,,,0.00,weatherlink.com 1.10,2013-10-26 11:22:00,
2013-10-26 06:37:00,58.0,51.0,30.23,SE,141,1.0,4.0,78,0.00,,,0.00,weatherlink.com 1.10,2013-10-26 11:37:00,
2013-10-26 06:52:00,58.1,51.0,30.23,SSW,193,3.0,5.0,78,0.00,,,0.00,weatherlink.com 1.10,2013-10-26 11:52:00,
2013-10-26 07:07:00,58.3,51.0,30.22,SE,140,6.0,7.0,78,0.00,,,0.00,weatherlink.com 1.10,2013-10-26 12:07:00,
2013-10-26 07:22:00,58.5,51.0,30.22,SSW,198,3.0,8.0,77,0.00,,,0.00,weatherlink.com 1.10,2013-10-26 12:22:00,
2013-10-26 07:37:00,58.4,52.0,30.22,South,179,4.0,11.0,78,0.00,,,0.00,weatherlink.com 1.10,2013-10-26 12:37:00,
2013-10-26 07:52:00,58.4,52.0,30.22,SSE,150,4.0,10.0,78,0.00,,,0.00,weatherlink.com 1.10,2013-10-26 12:52:00,
2013-10-26 08:07:00,58.3,51.0,30.22,SSW,193,7.0,10.0,78,0.00,,,0.00,weatherlink.com 1.10,2013-10-26 13:07:00,
2013-10-26 08:22:00,58.3,51.0,30.22,South,170,7.0,10.0,78,0.00,,,0.00,weatherlink.com 1.10,2013-10-26 13:22:00,
2013-10-26 08:37:00,58.3,51.0,30.22,South,177,3.0,9.0,78,0.00,,,0.00,weatherlink.com 1.10,2013-10-26 13:37:00,
2013-10-26 08:52:00,58.5,52.0,30.22,SSE,148,4.0,7.0,78,0.00,,,0.00,weatherlink.com 1.10,2013-10-26 13:52:00,
2013-10-26 09:07:00,59.0,52.0,30.22,SSE,150,5.0,10.0,77,0.00,,,0.00,weatherlink.com 1.10,2013-10-26 14:07:00,
2013-10-26 09:22:00,59.7,52.0,30.22,South,172,7.0,9.0,76,0.00,,,0.00,weatherlink.com 1.10,2013-10-26 14:22:00,
2013-10-26 09:38:00,60.3,53.0,30.23,SSW,212,6.0,12.0,76,0.00,,,0.00,weatherlink.com 1.10,2013-10-26 14:38:00,
2013-10-26 09:53:00,61.0,53.0,30.23,South,169,8.0,12.0,76,0.00,,,0.00,weatherlink.com 1.10,2013-10-26 14:53:00,
2013-10-26 10:08:00,61.9,54.0,30.22,South,187,7.0,13.0,76,0.00,,,0.00,weatherlink.com 1.10,2013-10-26 15:08:00,
2013-10-26 10:23:00,62.9,55.0,30.22,SSW,208,6.0,12.0,76,0.00,,,0.00,weatherlink.com 1.10,2013-10-26 15:23:00,
2013-10-26 10:38:00,64.0,56.0,30.22,SSW,208,8.0,14.0,75,0.00,,,0.00,weatherlink.com 1.10,2013-10-26 15:38:00,
2013-10-26 10:53:00,65.5,57.0,30.21,SW,229,10.0,13.0,73,0.00,,,0.00,weatherlink.com 1.10,2013-10-26 15:53:00,
2013-10-26 11:08:00,66.1,58.0,30.21,South,186,7.0,14.0,74,0.00,,,0.00,weatherlink.com 1.10,2013-10-26 16:08:00,
2013-10-26 11:23:00,67.0,59.0,30.21,SSW,210,8.0,-999.0,75,-99.99,,,0.00,weatherlink.com 1.10,2013-10-26 16:23:00,
2013-10-26 11:38:00,67.2,59.0,30.21,SSW,207,4.0,16.0,74,0.00,,,0.00,weatherlink.com 1.10,2013-10-26 16:38:00,
2013-10-26 11:53:00,67.4,59.0,30.20,SW,222,12.0,16.0,74,0.00,,,0.00,weatherlink.com 1.10,2013-10-26 16:53:00,
2013-10-26 12:08:00,68.5,60.0,30.20,SE,124,8.0,15.0,73,0.00,,,0.00,weatherlink.com 1.10,2013-10-26 17:08:00,
2013-10-26 12:23:00,70.5,61.0,30.19,SSW,200,14.0,14.0,71,0.00,,,0.00,weatherlink.com 1.10,2013-10-26 17:23:00,
2013-10-26 12:38:00,71.8,61.0,30.18,South,184,8.0,16.0,69,0.00,,,0.00,weatherlink.com 1.10,2013-10-26 17:38:00,
2013-10-26 12:53:00,71.7,61.0,30.18,South,177,11.0,14.0,69,0.00,,,0.00,weatherlink.com 1.10,2013-10-26 17:53:00,
2013-10-26 13:08:00,72.7,62.0,30.17,SW,218,9.0,15.0,68,0.00,,,0.00,weatherlink.com 1.10,2013-10-26 18:08:00,
2013-10-26 13:23:00,73.6,62.0,30.16,SE,143,11.0,18.0,68,0.00,,,0.00,weatherlink.com 1.10,2013-10-26 18:23:00,
2013-10-26 13:38:00,73.6,62.0,30.16,SSW,212,16.0,17.0,68,0.00,,,0.00,weatherlink.com 1.10,2013-10-26 18:38:00,
2013-10-26 13:53:00,73.5,63.0,30.15,SSE,160,9.0,16.0,69,0.00,,,0.00,weatherlink.com 1.10,2013-10-26 18:53:00,
2013-10-26 14:08:00,73.4,63.0,30.14,SSW,204,10.0,16.0,69,0.00,,,0.00,weatherlink.com 1.10,2013-10-26 19:08:00,
2013-10-26 14:24:00,73.2,62.0,30.13,SSW,210,11.0,17.0,69,0.00,,,0.00,weatherlink.com 1.10,2013-10-26 19:24:00,
2013-10-26 14:39:00,73.8,63.0,30.11,SSW,210,11.0,14.0,68,0.00,,,0.00,weatherlink.com 1.10,2013-10-26 19:39:00,
2013-10-26 14:54:00,74.6,62.0,30.11,SSW,195,12.0,18.0,66,0.00,,,0.00,weatherlink.com 1.10,2013-10-26 19:54:00,
2013-10-26 15:09:00,74.8,63.0,30.09,SSW,201,9.0,15.0,66,0.00,,,0.00,weatherlink.com 1.10,2013-10-26 20:09:00,
2013-10-26 15:24:00,75.0,63.0,30.09,SSW,211,15.0,16.0,66,0.00,,,0.00,weatherlink.com 1.10,2013-10-26 20:24:00,
2013-10-26 15:39:00,75.8,63.0,30.08,SSW,205,8.0,17.0,65,0.00,,,0.00,weatherlink.com 1.10,2013-10-26 20:39:00,
2013-10-26 15:54:00,75.7,63.0,30.08,South,185,7.0,16.0,65,0.00,,,0.00,weatherlink.com 1.10,2013-10-26 20:54:00,
2013-10-26 16:09:00,76.4,63.0,30.07,SSW,193,10.0,17.0,63,0.00,,,0.00,weatherlink.com 1.10,2013-10-26 21:09:00,
2013-10-26 16:24:00,76.0,63.0,30.06,SSE,159,8.0,17.0,64,0.00,,,0.00,weatherlink.com 1.10,2013-10-26 21:24:00,
2013-10-26 16:39:00,75.6,63.0,30.06,South,173,6.0,14.0,65,0.00,,,0.00,weatherlink.com 1.10,2013-10-26 21:39:00,
2013-10-26 16:54:00,76.0,63.0,30.06,SW,224,7.0,11.0,64,0.00,,,0.00,weatherlink.com 1.10,2013-10-26 21:54:00,
2013-10-26 17:09:00,76.1,63.0,30.06,SSW,207,9.0,15.0,64,0.00,,,0.00,weatherlink.com 1.10,2013-10-26 22:09:00,
2013-10-26 17:24:00,76.3,63.0,30.04,SSW,205,6.0,13.0,64,0.00,,,0.00,weatherlink.com 1.10,2013-10-26 22:24:00,
2013-10-26 17:39:00,76.3,63.0,30.04,South,173,12.0,14.0,64,0.00,,,0.00,weatherlink.com 1.10,2013-10-26 22:39:00,
2013-10-26 17:54:00,75.3,63.0,30.04,SSW,194,8.0,12.0,66,0.00,,,0.00,weatherlink.com 1.10,2013-10-26 22:54:00,
2013-10-26 18:09:00,74.9,63.0,30.04,East,99,8.0,16.0,66,0.00,,,0.00,weatherlink.com 1.10,2013-10-26 23:09:00,
2013-10-26 18:24:00,74.2,63.0,30.03,SSE,150,4.0,11.0,67,0.00,,,0.00,weatherlink.com 1.10,2013-10-26 23:24:00,
2013-10-26 18:39:00,73.4,63.0,30.05,SSE,153,4.0,9.0,69,0.00,,,0.00,weatherlink.com 1.10,2013-10-26 23:39:00,
2013-10-26 18:54:00,72.9,63.0,30.04,SSW,207,3.0,6.0,70,0.00,,,0.00,weatherlink.com 1.10,2013-10-26 23:54:00,
2013-10-26 19:09:00,72.3,62.0,30.04,South,180,5.0,6.0,71,0.00,,,0.00,weatherlink.com 1.10,2013-10-27 00:09:00,
2013-10-26 19:24:00,71.8,62.0,30.05,South,176,2.0,4.0,72,0.00,,,0.00,weatherlink.com 1.10,2013-10-27 00:24:00,
2013-10-26 19:39:00,71.2,62.0,30.05,East,86,1.0,3.0,73,0.00,,,0.00,weatherlink.com 1.10,2013-10-27 00:39:00,
2013-10-26 19:54:00,70.7,62.0,30.04,ESE,117,1.0,3.0,74,0.00,,,0.00,weatherlink.com 1.10,2013-10-27 00:54:00,
2013-10-26 20:09:00,70.1,62.0,30.04,ESE,113,3.0,4.0,76,0.00,,,0.00,weatherlink.com 1.10,2013-10-27 01:09:00,
2013-10-26 20:24:00,70.6,62.0,30.05,ENE,75,3.0,6.0,75,0.00,,,0.00,weatherlink.com 1.10,2013-10-27 01:24:00,
2013-10-26 20:39:00,65.6,58.0,30.05,ENE,75,5.0,13.0,77,0.03,,,0.03,weatherlink.com 1.10,2013-10-27 01:39:00,
2013-10-26 20:54:00,62.8,58.0,30.11,North,9,5.0,24.0,85,0.09,,,0.09,weatherlink.com 1.10,2013-10-27 01:54:00,
2013-10-26 21:09:00,60.9,59.0,30.17,NW,322,8.0,13.0,92,0.29,,,0.29,weatherlink.com 1.10,2013-10-27 02:09:00,
2013-10-26 21:24:00,60.7,59.0,30.12,East,87,4.0,6.0,94,0.47,,,0.47,weatherlink.com 1.10,2013-10-27 02:24:00,
2013-10-26 21:39:00,60.5,59.0,30.14,ENE,64,1.0,5.0,94,0.47,,,0.50,weatherlink.com 1.10,2013-10-27 02:39:00,
2013-10-26 21:54:00,60.4,59.0,30.13,SE,131,1.0,3.0,94,0.44,,,0.55,weatherlink.com 1.10,2013-10-27 02:54:00,
2013-10-26 22:09:00,60.6,59.0,30.15,South,169,0.0,2.0,95,0.26,,,0.56,weatherlink.com 1.10,2013-10-27 03:09:00,
2013-10-26 22:24:00,60.6,59.0,30.10,East,82,7.0,7.0,95,0.12,,,0.60,weatherlink.com 1.10,2013-10-27 03:24:00,
2013-10-26 22:39:00,60.3,59.0,30.08,SE,136,7.0,11.0,95,0.10,,,0.61,weatherlink.com 1.10,2013-10-27 03:39:00,
2013-10-26 22:54:00,60.3,59.0,30.09,SE,138,4.0,7.0,95,0.06,,,0.61,weatherlink.com 1.10,2013-10-27 03:54:00,
2013-10-26 23:09:00,60.3,59.0,30.10,SE,141,4.0,8.0,94,0.04,,,0.61,weatherlink.com 1.10,2013-10-27 04:09:00,
2013-10-26 23:24:00,60.3,59.0,30.10,East,100,2.0,7.0,94,0.01,,,0.61,weatherlink.com 1.10,2013-10-27 04:24:00,
2013-10-26 23:39:00,60.0,58.0,30.11,SE,124,10.0,11.0,94,0.00,,,0.61,weatherlink.com 1.10,2013-10-27 04:39:00,
2013-10-26 23:54:00,59.7,58.0,30.11,SSE,148,8.0,11.0,94,0.00,,,0.61,weatherlink.com 1.10,2013-10-27 04:54:00,